Regional Weather Roundup
Issued by NWS San Diego, CA

Home | Current Version | Previous Version | Text Only | Print | Product List | Glossary On
Versions: 1 2 3 4 5 6 7 8 9 10 11 12 13 14 15 16 17 18 19 20 21 22 23 24 25 26 27 28 29 30 31 32 33 34 35 36 37 38 39 40 41 42 43 44 45 46 47 48 49 50
000
ASUS46 KSGX 211910
RWRSGX

SAN DIEGO HOURLY WEATHER ROUNDUP
NATIONAL WEATHER SERVICE SAN DIEGO CA
1100 AM PST FRI NOV 21 2014

NOTE: "FAIR" INDICATES FEW OR NO CLOUDS BELOW 12,000 FEET WITH NO
SIGNIFICANT WEATHER AND/OR OBSTRUCTIONS TO VISIBILITY.

CAZ042-043-060-061-PZZ750-775-212000-

GREATER SAN DIEGO AREA

CITY           SKY/WX    TMP DP  RH WIND       PRES   REMARKS
LINDBERGH FLD  MOSUNNY   68  52  56 NW8       30.00F
POINT LOMA       N/A     66  54  66 NW7         N/A
NATIONAL CITY    N/A     69  54  59 W6        29.99F
CHULA VISTA      N/A     66  56  70 W6        29.92F
IMPERIAL BEACH MOSUNNY   68  54  60 W6        29.99F
BROWN FIELD    PTSUNNY   66  52  60 VRB6      29.99F
MIRAMAR MCAS   PTSUNNY   65  52  62 W7        29.99F
MONTGOMERY FLD PTSUNNY   66  52  60 W5        29.99F

$$

NORTH SAN DIEGO COUNTY

CITY           SKY/WX    TMP DP  RH WIND       PRES   REMARKS
CAMP PENDLETON MOSUNNY   67  54  63 SW7       29.98F
OCEANSIDE AP   PTSUNNY   68  54  60 W7        29.97F
OCEANSIDE HBR    N/A     65  57  75 SW3       30.01F
VISTA            N/A     64  55  74 W3        29.97F
CARLSBAD       MOSUNNY   65  52  62 VRB3      29.98F
DEL MAR          N/A     66  59  77 CALM      30.02S
FALLBROOK        N/A     65  58  80 S3        29.98F
ESCONDIDO        N/A     65  54  66 W5        30.00S
SAN MARCOS       N/A     64  53  68 CALM      29.97F
POWAY            N/A     64  56  74 N5        30.00F

$$

EAST SAN DIEGO COUNTY

CITY           SKY/WX    TMP DP  RH WIND       PRES   REMARKS
RAMONA         PTSUNNY   61  49  64 NW6       29.99F
SANTEE LAKES     N/A     65  54  69 CALM      30.00F
LA MESA          N/A     65  55  71 NW5       29.93F
JAMUL            N/A     61  54  77 CALM      29.98F
DESCANSO N       N/A     52  48  86 CALM      29.88F
MT. LAGUNA OBS   N/A     41  41 100 NW3       29.59F
CAMPO            N/A     56  47  71 W10       29.96F

$$

ORANGE COUNTY AND THE LOS ANGELES BASIN

CITY           SKY/WX    TMP DP  RH WIND       PRES   REMARKS
JOHN WAYNE AP  MOSUNNY   70  46  42 VRB5      29.98S
LAKE FOREST FR   N/A     65  49  55 CALM      29.89F
SANTA ANA        N/A     71  55  57 CALM      29.93S
HUNTINGTON BCH   N/A     69  52  54 N1        30.00S
LOS ALAMITOS   MOSUNNY   67  50  53 VRB1      29.98S
FULLERTON      SUNNY     69  49  48 E5        29.97S
LONG BEACH     SUNNY     69  50  50 VRB5      29.98S
L.A. AP        MOSUNNY   67  46  47 SW10      29.98S
L.A. DOWNTOWN  SUNNY     70  47  43 CALM      29.96F

$$

THE INLAND EMPIRE

CITY           SKY/WX    TMP DP  RH WIND       PRES   REMARKS
CORONA         SUNNY     66  50  56 CALM      29.98F
CHINO          MOSUNNY   67  50  54 CALM      29.99F
ONTARIO        MOSUNNY   63  50  62 VRB3      29.99S
SAN BERNARDINO MOSUNNY   63  48  59 W7        29.98F
RIVERSIDE AP   SUNNY     64  51  62 SW6       29.98F
RIV CYN CREST    N/A     63  58  84 NW5         N/A
MORENO VALLEY    N/A     63  51  65 CALM      29.17S
MARCH ARB      SUNNY     64  45  50 N8        29.98F
HORSETHIEF CYN   N/A     64  45  49 S2        30.00S
PERRIS           N/A     62  51  69 SE3       30.01F
MENIFEE          N/A     63  52  68 SE1       30.05S
HEMET EAST       N/A     59  46  60 CALM      29.97F
FRENCH VALLEY  FAIR      61  48  63 CALM      29.99S
TEMECULA         N/A     65  54  66 W3        29.94F

$$

SAN BERNARDINO AND RIVERSIDE COUNTY MOUNTAINS

CITY           SKY/WX    TMP DP  RH WIND       PRES   REMARKS
BIG BEAR AP    MOSUNNY   39  32  75 E3        30.05R
ANGELUS OAKS     N/A     44  36  74 CALM      29.94R
PINE COVE        N/A     40  38  92 CALM      29.91R

$$

SOUTHERN DESERT INCLUDING THE COACHELLA VALLEY

CITY           SKY/WX    TMP DP  RH WIND       PRES   REMARKS
PALM SPRINGS   MOSUNNY   65  43  44 SW5       29.96S
THOUSAND PALMS   N/A     69  47  46 W5        29.91F
PALM DESERT      N/A     72  47  41 CALM      27.88S
THERMAL        SUNNY     71  44  37 CALM      29.92F
BLYTHE         SUNNY     67  29  24 SE5       29.92F
IMPERIAL AP    MOSUNNY   67  52  58 NW9       29.92F
EL CENTRO NAS  MOSUNNY   70  51  51 W12       29.92F
YUMA AZ        PTSUNNY   69  44  40 NW15      29.91F
MEXICALI       PTSUNNY   68  45  42 NW13      29.93

$$

UPPER DESERT

CITY           SKY/WX    TMP DP  RH WIND       PRES   REMARKS
VICTORVILLE AP SUNNY     57  36  44 N5        30.02S
HESPERIA         N/A     56  39  53 N1        30.13S
APPLE VALLEY     N/A     60  36  40 CALM      30.07S
PALMDALE       SUNNY     59  38  45 W13       30.03S
LANCASTER      SUNNY     61  36  39 VRB7G17   30.03S
EDWARDS AFB    MOSUNNY   60  34  37 CALM      30.01R
DAGGETT        SUNNY     62  37  39 W9        30.00F
29 PALMS N     MOSUNNY   63  38  39 NW13      30.04F
NEEDLES        SUNNY     70  18  13 N6        29.94F

$$

REGIONAL REPORTS

CITY           SKY/WX    TMP DP  RH WIND       PRES   REMARKS
SANTA BARBARA  SUNNY     72  42  34 N17       29.98F
SANDBERG       MOSUNNY   49  39  68 N22       30.07S
MT. WILSON       N/A     50  36  57 NW2         N/A
LAS VEGAS NV   MOSUNNY   64  21  19 CALM      29.95F
PHOENIX AZ     PTSUNNY   67  21  17 CALM      29.91F
TIJUANA        PTSUNNY   64  50  59 N5        30.02
ENSENADA NW      N/A     67  32  27 W6        29.97F

$$

OFFSHORE ISLANDS

CITY           SKY/WX    TMP DP  RH WIND       PRES   REMARKS
CATALINA ARPT  SUNNY     61  43  51 VRB3      30.01S
SAN NICOLAS IS SUNNY    N/A N/A N/A NW24      30.01F

$$

MARINE AND OFFSHORE BUOY REPORTS

STATION/POSITION SKY/WX   TEMP    WIND        PRES    SWELL
                          AIR SEA DIR/SP/G            HT/PER/DIR
                          (F)     (DEG/KT/KT) (MB)    (FT/S/D)
TANNER BANKS               63 64  320/ 19/ 23 1016.7F
S CLEMENTE BASIN           64 67  290/ 12/ 14 1015.5F   5/290/ 9
SAN NICOLAS IS.               63                N/A     3/290/12
SO. S. ROSA ISLA           62 63  320/ 21/ 25 1016.0R   3/11
W. S. BARBARA CH           61 63  330/ 21/ 25 1016.5F   3/300/10
M. S. BARBARA CH           62     310/ 17     1016.0R
S. MONICA BASIN            63 65  320/ 12/ 14 1016.0R   3/270/11
S PEDRO CHANNEL               66                N/A     2/270/11
DANA POINT                    66                N/A     2/280/11
CMP PENDLETON NS              66                N/A     2/250/11
OCEANSIDE OFFSHR              67                N/A     2/260/12
TORREY PINES OTR              67                N/A     2/270/11
LA JOLLA 1                 65 66   10/  3/  4 1015.7S
MISSION BAY BUOY              67                N/A     2/270/11
SAN DIEGO BAY                 67              1016.0S
POINT LOMA SOUTH              67                N/A     3/280/11

$$



USA.gov is the U.S. government's official web portal to all federal, state and local government web resources and services.